Location: Friaudour
(46.0460°N, 1.2873°E)
Time: 04:39:38
(UTC+00:00)

Cosmos 1980 Rocket - Pass Details

Date: 14 July 2020
Orbit: 828 x 851 km, 71.0° (Epoch: 06 August)

Event Time Altitude Azimuth Distance (km) Brightness Sun altitude
Rises 03:23:57 0° 326° (NW) 3,427 5.5 -8.2°
Reaches altitude 10° 03:26:35 10° 318° (NW) 2,486 4.7 -7.9°
Maximum altitude 03:31:42 35° 255° (WSW) 1,347 2.8 -7.2°
Drops below altitude 10° 03:36:46 10° 191° (S) 2,462 4.2 -6.6°
Sets 03:39:22 0° 183° (S) 3,389 4.9 -6.2°
